AFR841 LFPG-TFFF

Flight info

Callsign AFR841
Flight time N/A
Altitude 32000
Route LGL UN491 UPALO/N0484F310 UN585 FEJAC DCT BADUR DCT REGHI/M084F320 DCT ETIKI DCT 46N020W 42N030W 38N035W/M084F340 33N040W 28N045W 24N050W DCT DRDGE/N0480F340 DCT UMAMU UMAMU2D
Aircraft B77W/H-SDE1E2E3FGHIJ2J3J4J5M1RWXY/LB1D1

Departure

Time N/A
Airport Charles de Gaulle International Airport (LFPG)

Arrival

Time 2026-05-08 17:08
Airport Martinique Aimé Césaire International Airport (TFFF)
Time Latitude Longitude Altitude Speed Heading
2026-05-08 16:43 15.89013 -60.22045 26881 ft 458 kts 226°
2026-05-08 16:44 15.86736 -60.24340 26348 ft 456 kts 225°
2026-05-08 16:44 15.84430 -60.26606 25816 ft 457 kts 224°
2026-05-08 16:44 15.82059 -60.28914 25245 ft 476 kts 224°
2026-05-08 16:44 15.79657 -60.31292 24671 ft 477 kts 225°
2026-05-08 16:45 15.77282 -60.33684 24095 ft 472 kts 225°
2026-05-08 16:45 15.74955 -60.36026 23557 ft 460 kts 225°
2026-05-08 16:45 15.72676 -60.38318 23041 ft 459 kts 225°
2026-05-08 16:45 15.70343 -60.40668 22522 ft 478 kts 225°
2026-05-08 16:46 15.67904 -60.43133 22111 ft 500 kts 225°
2026-05-08 16:46 15.65401 -60.45666 21959 ft 499 kts 225°
2026-05-08 16:46 15.62927 -60.48164 21423 ft 493 kts 225°
2026-05-08 16:46 15.60490 -60.50623 21113 ft 485 kts 225°
2026-05-08 16:47 15.58073 -60.53065 21036 ft 493 kts 225°
2026-05-08 16:47 15.55640 -60.55526 20844 ft 469 kts 225°
2026-05-08 16:47 15.53358 -60.57832 20019 ft 449 kts 225°
2026-05-08 16:47 15.51144 -60.60065 19157 ft 448 kts 225°
2026-05-08 16:48 15.48901 -60.62328 18414 ft 441 kts 225°
2026-05-08 16:48 15.46749 -60.64505 17676 ft 434 kts 225°
2026-05-08 16:48 15.44604 -60.66671 16985 ft 427 kts 225°
2026-05-08 16:48 15.42490 -60.68802 16314 ft 419 kts 225°
2026-05-08 16:49 15.40432 -60.70880 15828 ft 407 kts 225°
2026-05-08 16:49 15.38436 -60.72896 15383 ft 395 kts 225°
2026-05-08 16:49 15.36498 -60.74849 14943 ft 384 kts 225°
2026-05-08 16:49 15.34594 -60.76768 14581 ft 379 kts 225°
2026-05-08 16:50 15.32711 -60.78667 14177 ft 376 kts 225°
2026-05-08 16:50 15.30846 -60.80550 13780 ft 373 kts 225°
2026-05-08 16:50 15.28992 -60.82423 13374 ft 371 kts 225°
2026-05-08 16:50 15.27154 -60.84281 12963 ft 368 kts 225°
2026-05-08 16:51 15.25327 -60.86129 12551 ft 366 kts 225°
2026-05-08 16:51 15.23516 -60.87962 12141 ft 363 kts 225°
2026-05-08 16:51 15.21715 -60.89791 11728 ft 361 kts 225°
2026-05-08 16:51 15.19929 -60.91607 11302 ft 360 kts 225°
2026-05-08 16:52 15.18154 -60.93427 10832 ft 359 kts 225°
2026-05-08 16:52 15.16391 -60.95253 10510 ft 353 kts 225°
2026-05-08 16:52 15.14712 -60.97004 10448 ft 333 kts 225°
2026-05-08 16:52 15.13125 -60.98661 10309 ft 317 kts 225°
2026-05-08 16:53 15.10128 -61.01805 9738 ft 299 kts 225°
2026-05-08 16:53 15.08683 -61.03334 9362 ft 296 kts 225°
2026-05-08 16:53 15.07248 -61.04861 9060 ft 295 kts 225°
2026-05-08 16:54 15.05828 -61.06383 8769 ft 293 kts 225°
2026-05-08 16:54 15.04421 -61.07898 8492 ft 291 kts 225°
2026-05-08 16:54 15.03027 -61.09406 8188 ft 290 kts 225°
2026-05-08 16:54 15.01640 -61.10907 7905 ft 288 kts 225°
2026-05-08 16:55 15.00260 -61.12403 7616 ft 286 kts 225°
2026-05-08 16:55 14.98891 -61.13891 7370 ft 284 kts 225°
2026-05-08 16:55 14.97549 -61.15353 7376 ft 278 kts 225°
2026-05-08 16:55 14.96201 -61.16821 7366 ft 286 kts 225°
2026-05-08 16:56 14.94828 -61.18315 7358 ft 287 kts 225°
2026-05-08 16:56 14.93454 -61.19810 7356 ft 285 kts 225°
2026-05-08 16:56 14.92091 -61.21294 7356 ft 285 kts 225°
2026-05-08 16:56 14.90725 -61.22780 7357 ft 285 kts 225°
2026-05-08 16:57 14.89358 -61.24269 7357 ft 285 kts 225°
2026-05-08 16:57 14.87992 -61.25756 7357 ft 285 kts 225°
2026-05-08 16:57 14.86628 -61.27246 7356 ft 285 kts 225°
2026-05-08 16:57 14.85266 -61.28734 7353 ft 285 kts 226°
2026-05-08 16:58 14.83911 -61.30213 7167 ft 289 kts 225°
2026-05-08 16:58 14.82549 -61.31704 7112 ft 282 kts 226°
2026-05-08 16:58 14.81217 -61.33163 7108 ft 277 kts 225°
2026-05-08 16:58 14.79834 -61.34593 6980 ft 286 kts 218°
2026-05-08 16:59 14.78081 -61.35506 6819 ft 281 kts 192°
2026-05-08 16:59 14.76164 -61.35512 6817 ft 276 kts 167°
2026-05-08 16:59 14.74351 -61.34886 6622 ft 275 kts 156°
2026-05-08 16:59 14.72574 -61.34120 6219 ft 277 kts 155°
2026-05-08 17:00 14.70818 -61.33357 5969 ft 270 kts 155°
2026-05-08 17:00 14.69120 -61.32628 5830 ft 260 kts 155°
2026-05-08 17:00 14.67474 -61.31898 5516 ft 256 kts 153°
2026-05-08 17:00 14.65875 -61.31120 5247 ft 252 kts 152°
2026-05-08 17:01 14.64308 -61.30354 5015 ft 246 kts 152°
2026-05-08 17:01 14.62783 -61.29610 4811 ft 240 kts 152°
2026-05-08 17:01 14.61292 -61.28885 4589 ft 237 kts 152°
2026-05-08 17:01 14.59811 -61.28166 4414 ft 231 kts 152°
2026-05-08 17:02 14.58378 -61.27466 4267 ft 224 kts 152°
2026-05-08 17:02 14.57041 -61.26749 4127 ft 211 kts 142°
2026-05-08 17:02 14.56138 -61.25633 4007 ft 201 kts 116°
2026-05-08 17:02 14.55732 -61.24272 3841 ft 196 kts 100°
2026-05-08 17:03 14.55634 -61.22884 3646 ft 193 kts 90°
2026-05-08 17:03 14.55689 -61.21504 3449 ft 192 kts 87°
2026-05-08 17:03 14.55794 -61.20129 3249 ft 192 kts 84°
2026-05-08 17:03 14.55960 -61.18769 3052 ft 191 kts 82°
2026-05-08 17:04 14.56173 -61.17423 2855 ft 188 kts 80°
2026-05-08 17:04 14.56393 -61.16136 2652 ft 177 kts 79°
2026-05-08 17:04 14.56606 -61.14895 2480 ft 177 kts 79°
2026-05-08 17:04 14.56816 -61.13668 2272 ft 173 kts 79°
2026-05-08 17:05 14.57023 -61.12461 2066 ft 169 kts 79°
2026-05-08 17:05 14.57224 -61.11289 1833 ft 164 kts 79°
2026-05-08 17:05 14.57420 -61.10145 1640 ft 160 kts 79°
2026-05-08 17:05 14.57614 -61.09018 1398 ft 159 kts 79°
2026-05-08 17:06 14.57803 -61.07912 1193 ft 153 kts 80°
2026-05-08 17:06 14.57985 -61.06849 1000 ft 149 kts 79°
2026-05-08 17:06 14.58178 -61.05793 808 ft 149 kts 78°
2026-05-08 17:06 14.58379 -61.04753 660 ft 147 kts 79°
2026-05-08 17:07 14.58551 -61.03719 485 ft 146 kts 81°
2026-05-08 17:07 14.58715 -61.02667 270 ft 150 kts 80°
2026-05-08 17:07 14.58892 -61.01606 40 ft 147 kts 80°
2026-05-08 17:07 14.59038 -61.00687 30 ft 110 kts 76°
2026-05-08 17:08 14.59142 -61.00130 30 ft 29 kts 83°
2026-05-08 17:08 14.59155 -61.00055 30 ft 7 kts 69°
2026-05-08 17:08 14.59206 -61.00016 30 ft 11 kts
2026-05-08 17:08 14.59281 -61.00031 30 ft 11 kts 350°
2026-05-08 17:09 14.59364 -61.00059 30 ft 12 kts 311°
2026-05-08 17:09 14.59389 -61.00069 30 ft 3 kts 24°
2026-05-08 17:09 14.59417 -61.00051 30 ft 4 kts 24°
2026-05-08 17:09 14.59440 -61.00041 30 ft 2 kts 22°
2026-05-08 17:10 14.59447 -61.00038 30 ft 0 kts 22°